sat.trackr.live / text

‹ back to catalog

STARLINK-36665

NORAD 68968 · 2026-099T

PAYLOAD ACTIVE UNKNOWN

§ Identity

Operator
Country
US
Launch date
2026-05-01
Launch site
AFETR
Launch vehicle
Mass (kg)
RCS (m²)

Purposes: comms

External: N2YO · Heavens-Above · Gunter

§ Orbital elements

Epoch: 2026-09-20T02:13:35.447232Z

Period
93.85 min
Inclination
53.1589°
Eccentricity
0.0000599
Mean motion
15.34400269 rev/d
Perigee alt
462.3 km
Apogee alt
463.1 km
Semi-major
6,840.8 km
B*
4.8365e-4
RAAN
77.5602°
Arg perigee
108.7047°
Mean anomaly
251.4020°
Rev number
2,184

§ Raw data

STARLINK-366651 68968U 26099T   26263.09277138  .00016000  00000+0  48365-3 0  99942 68968  53.1589  77.5602 0000599 108.7047 251.4020 15.34400269 21840

JSON: /api/v1/satellites/68968 · /tle

For live sub-satellite position, see the globe view (requires WebGL).

§ Visibility from observer

Set your observer location to see the next 7 days of passes ≥ 10°. The values pass through the URL so the page stays shareable.

No JS? Fill the form by hand. The geolocation button needs JavaScript.